Location: Unspecified
(0.0000°N, 0.0000°E)
Time: 02:50:57
(UTC+01:00)

Centaur D-1AR AC-41 - Visible Passes

Search period start: 04 December 2016 00:00
Search period end: 14 December 2016 00:00
Orbit: 645 x 36196 km, 21.6° (Epoch: 01 December)

Date Brightness Start Highest point End Pass type
(mag) Time Alt. Az. Time Alt. Az. Time Alt. Az.
05 Dec 6.3 04:49:55 24° WSW 05:01:30 58° S 14:59:56 10° ENE visible
06 Dec 6.0 02:25:31 47° ESE 02:25:31 47° ESE 12:17:06 10° ENE visible
07 Dec 5.9 21:08:43 10° NW 21:13:38 14° NNW 21:13:38 14° NNW visible
09 Dec 7.1 06:02:35 10° WSW 06:37:50 58° S 16:15:20 10° NE visible
10 Dec 5.7 03:35:46 54° SW 03:38:21 59° S 13:39:22 10° ENE visible
11 Dec 7.0 01:11:22 19° ESE 01:11:22 19° ESE 01:17:26 10° ESE visible
11 Dec 9.9 06:26:46 10° ESE 09:25:08 26° E 10:44:41 10° E visible
12 Dec 5.6 19:32:02 10° WNW 19:53:53 23° NNW 19:59:38 11° NNE visible
